Location: Newark
(45.0667°N, 8.1000°E)
Time: 12:08:13
(UTC+00:00)

ISS - Visible Passes

Search period start: 20 July 2019 00:00
Search period end: 30 July 2019 00:00
Orbit: 409 x 418 km, 51.6° (Epoch: 20 July)

Date Brightness Start Highest point End Pass type
(mag) Time Alt. Az. Time Alt. Az. Time Alt. Az.
20 Jul -3.6 01:05:17 10° WNW 01:08:37 72° NNE 01:09:06 59° E visible
20 Jul -2.1 02:45:52 16° SSW 02:45:52 16° SSW 02:47:18 10° S visible
20 Jul -2.2 21:01:39 10° W 21:04:47 37° NNW 21:07:56 10° NE visible
20 Jul -1.5 22:39:13 10° NW 22:42:04 25° N 22:44:55 10° ENE visible
21 Jul -2.1 00:16:00 10° NW 00:18:01 31° NW 00:18:01 31° NW visible
21 Jul -2.8 20:12:06 10° W 20:15:22 49° NNW 20:18:39 10° NE visible
21 Jul -1.5 21:49:42 10° WNW 21:52:34 25° N 21:55:25 10° NE visible
21 Jul -2.1 23:26:42 10° NW 23:29:24 35° N 23:29:24 35° N visible
22 Jul -1.6 21:00:08 10° WNW 21:03:04 27° N 21:05:59 10° NE visible
22 Jul -1.9 22:37:22 10° NW 22:40:22 30° NNE 22:41:11 26° NE visible
23 Jul -1.9 20:10:31 10° W 20:13:34 31° NNW 20:16:36 10° NE visible
23 Jul -1.7 21:47:58 10° NW 21:50:53 26° N 21:53:06 14° ENE visible
23 Jul -1.5 23:24:39 10° WNW 23:25:55 21° NW 23:25:55 21° NW visible
24 Jul -1.6 20:58:29 10° WNW 21:01:20 25° N 21:04:11 10° ENE visible
24 Jul -2.4 22:35:20 10° NW 22:37:56 39° NNW 22:37:56 39° NNW visible
25 Jul -1.6 20:08:55 10° WNW 20:11:48 26° N 20:14:40 10° NE visible
25 Jul -2.3 21:45:59 10° NW 21:49:05 34° NNE 21:50:01 28° NE visible
25 Jul -0.8 23:22:38 10° WNW 23:22:49 11° WNW 23:22:49 11° WNW visible
26 Jul -1.9 20:56:35 10° NW 20:59:34 29° N 21:02:07 12° ENE visible
26 Jul -1.9 22:33:12 10° WNW 22:34:56 28° WNW 22:34:56 28° WNW visible
27 Jul -1.8 20:07:07 10° NW 20:10:01 26° N 20:12:53 10° ENE visible
27 Jul -3.3 21:43:50 10° NW 21:47:04 58° NNE 21:47:04 58° NNE visible
28 Jul -2.7 20:54:28 10° NW 20:57:40 41° NNE 20:59:14 24° ENE visible
28 Jul -1.2 22:31:12 10° WNW 22:32:03 16° WNW 22:32:03 16° WNW visible
29 Jul -2.3 20:05:04 10° NW 20:08:08 32° NNE 20:11:12 10° E visible
29 Jul -3.0 21:41:42 10° WNW 21:44:15 46° W 21:44:15 46° W visible
